スペースウォッチ彗星

C/2006 U6 ( Spacewatch )

English version
Home page
Updated on October 3, 2010

---------------------------------------------------------------------

・ プロフィール

発見日 2006年10月19日
発見光度 19.8等
発見者 Spacewatch program

・ 写真集

・ 軌道要素

The following orbital elements are taken from MPC 66204:

Epoch 2008 June 23.0 TT = JDT 2454640.5
T 2008 June 5.4817 TT                                   MPC
q   2.498390             (2000.0)            P               Q
z  +0.000508       Peri.  276.5991      -0.1152080      -0.9933362
 +/-0.000001       Node   180.1852      +0.4745770      -0.0578890
e   0.998730       Incl.   84.8788      -0.8726419      +0.0996600
From 456 observations 2006 Sept. 15-2009 May 29, mean residual 1".0.

・ 星図

・ 光度変化

        m1 = 9.5 + 5 logΔ + 7.5 log r

---------------------------------------------------------------------

軌道要素はMPCのEphemerides and Orbital Elementsに掲載されたものです。
星図は StellaNavigator Ver.2.0 for Windows (アストロアーツ 編著 / アスキー出版局刊) で作成したものです。
光度グラフはComet for Windowsで作成したものです。

---------------------------------------------------------------------

Copyright(C) Seiichi Yoshida (comet@aerith.net). All rights reserved.